Regional Weather Roundup
Issued by NWS

Home | Current Version | Previous Version | Graphics & Text | Print | Product List | Glossary On
Versions: 1 2 3 4 5 6 7 8 9 10 11 12 13 14 15 16 17 18 19 20 21 22 23 24 25 26 27 28 29 30 31 32 33 34 35 36 37 38 39 40 41 42 43 44 45 46 47 48 49 50
642
ASUS43 KLOT 032208
RWRIL

ILLINOIS REGIONAL WEATHER ROUNDUP
NATIONAL WEATHER SERVICE CHICAGO/ROMEOVILLE IL
400 PM CST SAT DEC 03 2016

NOTE: "FAIR" INDICATES FEW OR NO CLOUDS BELOW 12,000 FEET WITH NO
SIGNIFICANT WEATHER AND/OR OBSTRUCTIONS TO VISIBILITY.

* THESE STATIONS ARE NOT UNDER NWS QUALITY CONTROL. THEY ALSO MAY NOT
  REPORT WEATHER SUCH AS PRECIPITATION OR FOG.

ILZ001-002-007-009-015-016-024-032300-
NORTHWEST ILLINOIS

CITY           SKY/WX    TMP DP  RH WIND       PRES   REMARKS
MOLINE         MOCLDY    38  25  59 CALM      30.30F
STERLING*      CLOUDY    37  27  67 CALM      30.32S
SAVANNA*       CLOUDY    37  27  66 S3        30.30F
$$

ILZ003-004-008-010-011-017-018-032300-
NORTH CENTRAL ILLINOIS

CITY           SKY/WX    TMP DP  RH WIND       PRES   REMARKS
ROCKFORD       CLOUDY    36  25  64 W3        30.33F
FREEPORT*      CLOUDY    34  26  72 CALM      30.32S
ROCHELLE*      CLOUDY    35  29  78 CALM      30.32S
DE KALB*       CLOUDY    34  26  71 SW3       30.32S
$$

ILZ005-006-012>014-019>023-032300-
NORTHEAST ILLINOIS

CITY           SKY/WX    TMP DP  RH WIND       PRES   REMARKS
CHICAGO-OHARE  MOCLDY    33  23  66 W6        30.32F WCI  28
CHICAGO-MIDWAY MOCLDY    34  23  64 W7        30.33F WCI  28
AURORA         CLOUDY    35  26  69 CALM      30.33S
LANSING*       CLOUDY    33  27  77 W6        30.33F WCI  28
JOLIET*        PTCLDY    33  26  75 CALM      30.34F
WAUKEGAN       CLOUDY    32  23  69 W3        30.31F
DUPAGE AIRPORT MOCLDY    33  23  66 CALM      30.31F
KANKAKEE*      CLOUDY    33  26  76 NW3       30.34F
WHEELING       PTCLDY    33  22  63 W3        30.33F
MORRIS*        MOCLDY    33  26  72 CALM      30.33F
ROMEOVILLE*    CLOUDY    33  28  83 W3        30.33F
NORTHERLY ISL    N/A     34  23  64 W5          N/A  WCI  30
$$

LMZ740>746-032300-
SOUTHERN LAKE MICHIGAN

STATION/POSITION SKY/WX   TEMP    WIND        PRES    VSBY  WAVE
                          AIR SEA DIR/SP/G                  HT/PER
                          (F)     (DEG/KT/KT) (MB)    (MI)  (FT/S)
SOUTHERN BUOY              34 49  260/  4/  6 1026.8          1/ 3
HARRISON CRIB              35     280/ 10/ 11   N/A
BURNHAM HARBOR             34     300/  3/  9   N/A
CALUMET HARBOR             34     250/  5/  6 1026.6F
BURNS HARBOR               35     240/  8/ 11 1027.4S
MICHIGAN CITY              35     240/  9/ 11   N/A
$$

ILZ025>027-034>036-040-047-049-050-058-095>099-032300-
WEST-CENTRAL ILLINOIS

CITY           SKY/WX    TMP DP  RH WIND       PRES   REMARKS
QUINCY         CLOUDY    41  33  73 E9        30.25F
GALESBURG*     CLEAR     35  28  74 CALM      30.30F
MACOMB*        CLOUDY    38  31  76 E7        30.31F WCI  33
JACKSONVILLE*  CLOUDY    40  33  75 E8        30.29F
PITTSFIELD*    PTCLDY    42  33  72 E6        30.28F
$$

ILZ028>032-037-038-041>044-048-051>054-059>061-032300-
CENTRAL ILLINOIS

CITY           SKY/WX    TMP DP  RH WIND       PRES   REMARKS
PONTIAC        CLOUDY    34  28  77 N3        30.34F
BLOOMINGTON    CLOUDY    35  27  72 NE7       30.31F WCI  29
DECATUR        MOCLDY    38  30  73 E5        30.32S WCI  34
PEORIA         MOCLDY    36  27  69 E8        30.32F WCI  30
LACON*         MOCLDY    35  26  71 N3        30.32F
LINCOLN*       PTCLDY    38  31  74 CALM      30.32S
SPRINGFIELD    CLOUDY    40  31  70 E7        30.31S
TAYLORVILLE    HAZE      39  32  76 E5        30.30F VSB 1/2
$$

ILZ033-039-045-046-055>057-062-063-032300-
EAST-CENTRAL ILLINOIS

CITY           SKY/WX    TMP DP  RH WIND       PRES   REMARKS
CHAMPAIGN      PTCLDY    37  28  70 CALM      30.32S
RANTOUL*       CLOUDY    37  29  75 N8        30.32F WCI  30
MATTOON        CLOUDY    38  30  73 NE7       30.31F WCI  33
PARIS*         MOCLDY    37  30  78 N3        30.33S
$$

ILZ079-100>102-032300-
SOUTHWEST ILLINOIS

CITY           SKY/WX    TMP DP  RH WIND       PRES   REMARKS
BELLEVILLE     CLOUDY    42  34  71 E5        30.29
CAHOKIA*       PTCLDY    43  32  65 SE7       30.29S
SPARTA*        CLOUDY    41  32  70 E7        30.29F
$$

ILZ064>066-069>071-074>076-080>082-084>086-088>090-092>094-032300-
SOUTH-CENTRAL ILLINOIS

CITY           SKY/WX    TMP DP  RH WIND       PRES   REMARKS
CARBONDALE     CLOUDY    43  33  68 E5        30.28F
CAIRO*         CLOUDY    43  32  66 NE8       30.27F
EFFINGHAM*     CLOUDY    41  33  73 CALM      30.32F
MARION         CLOUDY    45  32  61 E12       30.29F
CENTRALIA*     CLOUDY    43  34  70 CALM      30.29F
SALEM*         PTCLDY    43  32  65 CALM      30.30F
METROPOLIS*    CLOUDY    43  32  64 CALM      30.28F
$$

ILZ067-068-072-073-078-083-087-091-032300-
SOUTHEAST ILLINOIS

CITY           SKY/WX    TMP DP  RH WIND       PRES   REMARKS
LAWRENCEVILLE  CLOUDY    42  31  64 NE6       30.32F
FLORA*         CLOUDY    43  34  71 SE3       30.31F
FAIRFIELD*     CLOUDY    42  33  70 CALM      30.30F
HARRISBURG*    CLOUDY    43  34  70 E6        30.30F
ROBINSON*      CLOUDY    39  31  72 NE5       30.34S
CARMI*         CLOUDY    42  34  73 NE5       30.30F
$$

ABBREVIATIONS USED IN REMARKS
   TC - TEMPERATURE IN CELSIUS
  WCI - WIND CHILL INDEX
   HX - HEAT INDEX
  VSB - VISIBILITY
$$





USA.gov is the U.S. government's official web portal to all federal, state and local government web resources and services.